map of CWB home
Great Circle Mapper logo
CWB - Airport
Location
City:  Curitiba, Paraná, Brazil
Name:Afonso Pena International Airport
ICAO / IATA:SBCT / CWB

Details
Type:Airport (Aerodrome, Airfield)
Use:Public/Civil, International (customs port of entry)
Latitude:25°31'43"S (-25.528474)
Longitude:49°10'33"W (-49.175774)
Datum:WGS 1984
Elevation:2988 ft (911 m)
Variation:19.26°W (WMM2015 magnetic declination)
-0.14° annual change
Runways:2
Longest:7267 × 148 ft (2215 × 45 m), paved

Time
Time Zone:UTC-3 (DST-2)
Local Time:

Weather
METAR:SBCT 302200Z 22003KT CAVOK 13/09 Q1018
TAF:SBCT 301500Z 3018/3118 30005KT 9999 SCT025 TN07/3108Z TX18/3117Z PROB30 3108/3111 4000 BR SCT006
RMK PEL

Related Locations
Nearby:
Farthest:MMD: 12407 mi / 19968 km
Minami Daito Jima, Okinawa, JP

Find:

   beyond  
but within

Other Information
Maps:
NOTAMs:
Links:
Sources:

  
flag of Brazil
flag of Paraná
flag of Curitiba
  

Sectional Chart

Flight Planning
at skyvector.com

Satellite Image

Google Maps satellite view

 

Copyright © 2004-2015 Karl L. Swartz. All rights reserved.
The Great Circle Mapper name and logo are trademarks of the Great Circle Mapper.
All other trademarks mentioned herein belong to their respective owners.
Please see credits for attibutions and further copyright information.

  Follow gcmap on Facebook Follow gcmap on Twitter Follow gcmap on Google+

hCard Microformat

Geo Microformat